When you browse on this site, cookies collect data to enhance your experience and personalize the content and advertising you see.
Visit our Privacy Policy to learn more. By continuing to use the site, you agree to this use of cookies and data.
  • In Spain
  • List of Countries
  • For 7 days
  • Water Temperature
  • Weather Map
  • Weather Widgets
  • user-avatar
    Login

    Hourly Weather Badalona

    Today, 6 June, Saturday

    Time Temperature Precipitation Wind Pressure Humidity
    00:00 +20°C° 0 mm 2 mps 754 mmHg 70%
    01:00 +20°C° 0 mm 2 mps 754 mmHg 70%
    02:00 +19°C° 0 mm 2 mps 754 mmHg 70%
    03:00 +19°C° 0 mm 2 mps 753 mmHg 70%
    04:00 +19°C° 0 mm 2 mps 753 mmHg 68%
    05:00 +20°C° 0 mm 3 mps 753 mmHg 66%
    06:00 +20°C° 0 mm 3 mps 754 mmHg 65%
    07:00 +22°C° 0 mm 3 mps 753 mmHg 61%
    08:00 +23°C° 0 mm 4 mps 753 mmHg 57%
    09:00 +25°C° 0 mm 4 mps 753 mmHg 54%
    10:00 +26°C° 0 mm 4 mps 753 mmHg 53%
    11:00 +27°C° 0 mm 5 mps 753 mmHg 52%
    12:00 +28°C° 0 mm 5 mps 753 mmHg 52%
    13:00 +28°C° 0 mm 4 mps 752 mmHg 54%
    14:00 +27°C° 0 mm 4 mps 752 mmHg 55%
    15:00 +27°C° 0 mm 4 mps 751 mmHg 57%
    16:00 +26°C° 0.1 mm 4 mps 751 mmHg 61%
    17:00 +26°C° 0.1 mm 4 mps 751 mmHg 64%
    18:00 +25°C° 0.1 mm 3 mps 750 mmHg 67%
    19:00 +24°C° 0 mm 3 mps 750 mmHg 71%
    20:00 +24°C° 0 mm 3 mps 751 mmHg 75%
    21:00 +22°C° 0 mm 3 mps 751 mmHg 78%
    22:00 +22°C° 0.1 mm 3 mps 751 mmHg 79%
    23:00 +21°C° 0.1 mm 3 mps 751 mmHg 80%

    Tomorrow, 7 June, Sunday

    Time Temperature Precipitation Wind Pressure Humidity
    00:00 +21°C° 0.1 mm 4 mps 750 mmHg 81%
    01:00 +21°C° 0.2 mm 4 mps 750 mmHg 82%
    02:00 +20°C° 0.2 mm 4 mps 750 mmHg 82%
    03:00 +20°C° 0.2 mm 4 mps 750 mmHg 82%
    04:00 +20°C° 0.3 mm 4 mps 750 mmHg 81%
    05:00 +20°C° 0.3 mm 4 mps 750 mmHg 79%
    06:00 +21°C° 0.3 mm 4 mps 750 mmHg 77%
    07:00 +21°C° 0.4 mm 4 mps 751 mmHg 73%
    08:00 +22°C° 0.4 mm 4 mps 751 mmHg 70%
    09:00 +22°C° 0.4 mm 4 mps 751 mmHg 66%
    10:00 +23°C° 0.6 mm 5 mps 752 mmHg 63%
    11:00 +23°C° 0.6 mm 5 mps 752 mmHg 60%
    12:00 +25°C° 0.6 mm 5 mps 752 mmHg 56%
    13:00 +25°C° 0.4 mm 5 mps 752 mmHg 56%
    14:00 +24°C° 0.4 mm 6 mps 752 mmHg 55%
    15:00 +24°C° 0.4 mm 6 mps 752 mmHg 55%
    16:00 +23°C° 0.1 mm 6 mps 752 mmHg 56%
    17:00 +23°C° 0.1 mm 6 mps 752 mmHg 57%
    18:00 +22°C° 0.1 mm 6 mps 752 mmHg 59%
    19:00 +21°C° 0 mm 5 mps 753 mmHg 60%
    20:00 +21°C° 0 mm 4 mps 753 mmHg 62%
    21:00 +20°C° 0 mm 3 mps 754 mmHg 64%
    22:00 +19°C° 0.8 mm 2 mps 754 mmHg 69%
    23:00 +19°C° 0.8 mm 2 mps 754 mmHg 75%

    Day after tomorrow, 8 June, Monday

    Time Temperature Precipitation Wind Pressure Humidity
    00:00 +18°C° 0.8 mm 2 mps 754 mmHg 80%
    01:00 +18°C° 0.7 mm 2 mps 754 mmHg 82%
    02:00 +17°C° 0.7 mm 2 mps 754 mmHg 83%
    03:00 +17°C° 0.7 mm 2 mps 754 mmHg 84%
    04:00 +17°C° 0.6 mm 2 mps 754 mmHg 84%
    05:00 +17°C° 0.6 mm 2 mps 754 mmHg 83%
    06:00 +17°C° 0.6 mm 2 mps 754 mmHg 83%
    07:00 +17°C° 0.4 mm 2 mps 754 mmHg 82%
    08:00 +17°C° 0.4 mm 2 mps 755 mmHg 81%
    09:00 +18°C° 0.4 mm 2 mps 755 mmHg 80%
    10:00 +18°C° 0.3 mm 2 mps 755 mmHg 79%
    11:00 +18°C° 0.3 mm 2 mps 755 mmHg 77%
    12:00 +18°C° 0.3 mm 3 mps 755 mmHg 76%
    13:00 +19°C° 0.1 mm 3 mps 755 mmHg 71%
    14:00 +19°C° 0.1 mm 3 mps 754 mmHg 66%
    15:00 +20°C° 0.1 mm 3 mps 754 mmHg 62%
    16:00 +20°C° 0 mm 3 mps 754 mmHg 60%
    17:00 +20°C° 0 mm 2 mps 754 mmHg 58%
    18:00 +20°C° 0 mm 2 mps 754 mmHg 56%
    19:00 +19°C° 0 mm 2 mps 755 mmHg 59%
    20:00 +18°C° 0 mm 2 mps 755 mmHg 62%
    21:00 +18°C° 0 mm 2 mps 756 mmHg 65%
    22:00 +17°C° 0 mm 2 mps 756 mmHg 66%
    23:00 +17°C° 0 mm 2 mps 756 mmHg 67%

    9 June, Tuesday

    Time Temperature Precipitation Wind Pressure Humidity
    00:00 +17°C° 0 mm 2 mps 756 mmHg 68%
    01:00 +17°C° 0 mm 2 mps 756 mmHg 64%
    02:00 +16°C° 0 mm 2 mps 756 mmHg 61%
    03:00 +16°C° 0 mm 2 mps 756 mmHg 58%
    04:00 +16°C° 0 mm 2 mps 756 mmHg 56%
    05:00 +17°C° 0 mm 2 mps 756 mmHg 54%
    06:00 +17°C° 0 mm 2 mps 756 mmHg 52%
    07:00 +19°C° 0 mm 2 mps 756 mmHg 47%
    08:00 +22°C° 0 mm 1 mps 756 mmHg 42%
    09:00 +23°C° 0 mm 1 mps 756 mmHg 37%
    10:00 +24°C° 0 mm 2 mps 756 mmHg 36%
    11:00 +25°C° 0 mm 2 mps 756 mmHg 36%
    12:00 +26°C° 0 mm 3 mps 756 mmHg 35%
    13:00 +26°C° 0 mm 3 mps 756 mmHg 36%
    14:00 +26°C° 0 mm 3 mps 756 mmHg 38%
    15:00 +26°C° 0 mm 4 mps 756 mmHg 39%
    16:00 +25°C° 0 mm 3 mps 756 mmHg 43%
    17:00 +24°C° 0 mm 3 mps 756 mmHg 47%
    18:00 +24°C° 0 mm 2 mps 756 mmHg 51%
    19:00 +23°C° 0.4 mm 2 mps 757 mmHg 57%
    20:00 +20°C° 0.4 mm 2 mps 757 mmHg 63%
    21:00 +19°C° 0.4 mm 2 mps 758 mmHg 68%
    22:00 +19°C° 0.5 mm 2 mps 758 mmHg 70%
    23:00 +19°C° 0.5 mm 2 mps 758 mmHg 71%

    10 June, Wednesday

    Time Temperature Precipitation Wind Pressure Humidity
    00:00 +20°C° 0.5 mm 1 mps 758 mmHg 72%
    01:00 +18°C° 0 mm 2 mps 757 mmHg 72%
    02:00 +18°C° 0 mm 2 mps 757 mmHg 71%
    03:00 +18°C° 0 mm 2 mps 757 mmHg 70%
    04:00 +18°C° 0.1 mm 2 mps 757 mmHg 67%
    05:00 +19°C° 0.1 mm 2 mps 757 mmHg 64%
    06:00 +19°C° 0.1 mm 2 mps 758 mmHg 61%
    07:00 +20°C° 0.1 mm 2 mps 758 mmHg 56%
    08:00 +23°C° 0.1 mm 2 mps 758 mmHg 51%
    09:00 +25°C° 0.1 mm 2 mps 758 mmHg 46%
    10:00 +25°C° 0.1 mm 2 mps 758 mmHg 45%
    11:00 +26°C° 0.1 mm 3 mps 758 mmHg 44%
    12:00 +26°C° 0.1 mm 3 mps 758 mmHg 44%
    13:00 +26°C° 0.3 mm 3 mps 758 mmHg 47%
    14:00 +26°C° 0.3 mm 3 mps 757 mmHg 50%
    15:00 +26°C° 0.3 mm 3 mps 757 mmHg 53%
    16:00 +25°C° 0.7 mm 3 mps 757 mmHg 56%
    17:00 +24°C° 0.7 mm 2 mps 757 mmHg 59%
    18:00 +23°C° 0.7 mm 2 mps 757 mmHg 62%
    19:00 +23°C° 0.5 mm 2 mps 758 mmHg 64%
    20:00 +21°C° 0.5 mm 2 mps 758 mmHg 66%
    21:00 +20°C° 0.5 mm 2 mps 759 mmHg 67%
    22:00 +21°C° 0.1 mm 1 mps 758 mmHg 68%
    23:00 +21°C° 0.1 mm 1 mps 758 mmHg 69%

    11 June, Thursday

    Time Temperature Precipitation Wind Pressure Humidity
    00:00 +20°C° 0.1 mm 1 mps 758 mmHg 70%
    01:00 +20°C° 0 mm 1 mps 758 mmHg 70%
    02:00 +20°C° 0 mm 1 mps 758 mmHg 71%
    03:00 +20°C° 0 mm 1 mps 757 mmHg 71%
    04:00 +20°C° 0 mm 1 mps 757 mmHg 69%
    05:00 +20°C° 0 mm 1 mps 757 mmHg 67%
    06:00 +21°C° 0 mm 1 mps 758 mmHg 66%
    07:00 +22°C° 0 mm 1 mps 757 mmHg 59%
    08:00 +23°C° 0 mm 1 mps 757 mmHg 53%
    09:00 +25°C° 0 mm 1 mps 757 mmHg 46%
    10:00 +26°C° 0.1 mm 2 mps 757 mmHg 45%
    11:00 +27°C° 0.1 mm 3 mps 757 mmHg 43%
    12:00 +27°C° 0.1 mm 3 mps 757 mmHg 41%
    13:00 +27°C° 0.1 mm 3 mps 756 mmHg 45%
    14:00 +26°C° 0.1 mm 3 mps 756 mmHg 49%
    15:00 +26°C° 0.1 mm 3 mps 755 mmHg 53%
    16:00 +25°C° 0.1 mm 3 mps 755 mmHg 57%
    17:00 +24°C° 0.1 mm 2 mps 755 mmHg 60%
    18:00 +24°C° 0.1 mm 2 mps 755 mmHg 64%
    19:00 +23°C° 0 mm 1 mps 755 mmHg 66%
    20:00 +22°C° 0 mm 1 mps 755 mmHg 69%
    21:00 +22°C° 0 mm 1 mps 756 mmHg 71%
    22:00 +21°C° 0.1 mm 2 mps 755 mmHg 73%
    23:00 +20°C° 0.1 mm 2 mps 755 mmHg 75%
    Show more